Regional Weather Roundup
Issued by NWS State College, PA

Home | Current Version | Previous Version | Text Only | Print | Product List | Glossary Off
Versions: 1 2 3 4 5 6 7 8 9 10 11 12 13 14 15 16 17 18 19 20 21 22 23 24 25 26 27 28 29 30 31 32 33 34 35 36 37 38 39 40 41 42 43 44 45 46 47 48 49 50

000
ASUS41 KCTP 031110
RWRCTP

REGIONAL WEATHER ROUNDUP
NATIONAL WEATHER SERVICE STATE COLLEGE PA
700 AM EDT TUE MAY 03 2016

Note: "fair" indicates few or no clouds below 12,000 feet with no
significant weather and/or obstructions to visibility.

* = STATION THAT DOES NOT REPORT PRECIPITATION /E.G. RAIN...SNOW...ETC/
    THUNDER OR FOG.

PAZ002>004-007>009-013>016-020>023-029>032-031200-
WESTERN PENNSYLVANIA

CITY           SKY/WX    TMP DP  RH WIND       PRES   REMARKS
ERIE           CLOUDY    45  41  86 CALM      29.92R
MEADVILLE      CLOUDY    40  40 100 N6        29.89S FOG
FRANKLIN*      CLOUDY    45  41  87 CALM      29.90F
NEW CASTLE     CLOUDY    44  42  93 N7        29.89F
BEAVER COUNTY  FOG       43  43 100 CALM      29.89  VSB 1/4
BUTLER*        CLOUDY    46  43  87 W3        29.91R
PITTSBURGH INT CLOUDY    48  43  82 N6        29.87S
PITTSBURGH     CLOUDY    48  44  86 CALM      29.86S
INDIANA*       CLOUDY    52  50  93 NW3       29.89S
LATROBE        CLOUDY    50  50 100 CALM      29.88R
WASHINGTON CO* CLOUDY    46  43  87 NW3       29.88S
$$

PAZ004>006-010>012-017>019-024>028-033>037-041-042-045-046-049>053-031200-
CENTRAL PENNSYLVANIA

CITY           SKY/WX    TMP DP  RH WIND       PRES   REMARKS
BRADFORD       LGT RAIN  43  42  97 E3        29.86S VSB 1
DUBOIS         CLOUDY    47  45  93 N5        29.85S FOG
CLEARFIELD     CLOUDY    48  45  89 E8        29.86R FOG
JOHNSTOWN      FOG       51  47  86 NW8       29.84S VSB<1/4
ALTOONA        FOG       53  51  93 NE6       29.84S VSB 1/4
STATE COLLEGE  CLOUDY    46  46 100 NE7       29.87R FOG
WILLIAMSPORT   CLOUDY    49  45  86 W3        29.88R
SELINSGROVE    LGT RAIN  50  48  93 N6        29.87S FOG
FT INDIANTOWN  DRIZZLE   52  52 100 N3        29.84R FOG
CAPITAL CITY   LGT RAIN  56  52  86 VRB3      29.83R FOG
HARRISBURG     LGT RAIN  55  52  89 VRB6      29.82R FOG
YORK           LGT RAIN  57  56  96 NE6       29.80S FOG
$$

PAZ038>040-043-044-047-048-054-055-060>062-067>071-031200-
EASTERN PENNSYLVANIA

CITY           SKY/WX    TMP DP  RH WIND       PRES   REMARKS
SCRANTON       LGT RAIN  48  47  96 N3        29.87S FOG
MOUNT POCONO   HVY RAIN  47  45  93 CALM      29.86S VSB 1
ALLENTOWN      CLOUDY    52  49  89 NE6       29.85S
QUAKERTOWN*    CLOUDY    54  54 100 E3        29.84S
READING        LGT RAIN  53  51  93 NE8       29.82S FOG
LANCASTER      LGT RAIN  56  54  93 NE7       29.81S
COATESVILLE    CLOUDY    55  55 100 E10       29.83R
POTTSTOWN      CLOUDY    54  54 100 NE6       29.84S FOG
BLUE BELL      CLOUDY    54  54 100 E9        29.82S
DOYLESTOWN     CLOUDY    53  52  96 CALM      29.83S
WILLOW GROVE   NOT AVBL
NORTH PHILA    LGT RAIN  57  32  38 E10       29.84F
PHILADELPHIA   LGT RAIN  57  53  86 NE9       29.82S
$$




USA.gov is the U.S. government's official web portal to all federal, state and local government web resources and services.